Tracking 30102 objects as of 12-Dec-2024
HD Live streaming from Space Station
objects crossing your sky now

STARLINK-30073

Track STARLINK-30073 now!
10-day predictions
STARLINK-30073 is classified as:


NORAD ID: 56840
Int'l Code: 2023-079T
Perigee: 494.2 km
Apogee: 496.1 km
Inclination: 43.0 °
Period: 94.4 minutes
Semi major axis: 6866 km
RCS: Unknown
Launch date: June 4, 2023
Source: United States (US)
Launch site: AIR FORCE EASTERN TEST RANGE (AFETR)
Your satellite tracking list
Your tracking list is empty




NASA's NSSDC Master Catalog

Two Line Element Set (TLE):
1 56840U 23079T   24347.46883089 -.00002057  00000-0 -68768-4 0  9995
2 56840  42.9989  22.5340 0001373 265.9107  94.1587 15.25927849 85117
Source of the keplerian elements: AFSPC